カタログに戻る

EUCROPIS

運用中科学SSO
NORAD 43807·PAYLOAD·🇩🇪 Germany

打ち上げ Dec 3, 2018 から Vandenberg Space Force Base

Loading…

次のパス (今後24時間)

TLE

最新Source: Space-Track

元期: Sep 14, 2026, 14:16 UTC

1 43807U 18099BB  26257.59464112  .00005502  00000-0  24608-3 0  9998
2 43807  97.4129 312.0396 0004893   2.9372 357.1892 15.21702590426051

AllMySatでEUCROPISをリアルタイム追跡

Download on the App Store